Regional Weather Roundup
Issued by NWS

Home | Current Version | Previous Version | Graphics & Text | Print | Product List | Glossary On
Versions: 1 2 3 4 5 6 7 8 9 10 11 12 13 14 15 16 17 18 19 20 21 22 23 24 25 26 27 28 29 30 31 32 33 34 35 36 37 38 39 40 41 42 43 44 45 46 47 48 49 50
858
ASUS45 KCYS 281410
RWRWY

WYOMING REGIONAL WEATHER ROUNDUP
NATIONAL WEATHER SERVICE CHEYENNE WY
800 AM MDT SAT MAY 28 2016

NOTE:  "FAIR" INDICATES FEW OR NO CLOUDS BELOW 12,000 FEET
WITH NO SIGNIFICANT WEATHER AND/OR OBSTRUCTIONS TO VISIBILITY.

WYZ001-281500-
YELLOWSTONE NATIONAL PARK

CITY           SKY/WX    TMP DP  RH WIND       PRES   REMARKS
LK YELLOWSTONE   N/A     36  28  73 CALM      30.10R
W YELLOWSTONE  NOT AVBL

$$
WYZ002>013-054>058-071-098>099-281500-
NORTHERN WYOMING

CITY           SKY/WX    TMP DP  RH WIND       PRES   REMARKS
JACKSON        NOT AVBL
CODY           FAIR      46  43  87 CALM      30.00S
GREYBULL       RAIN      50  46  86 N8        29.96R
WORLAND        CLOUDY    52  46  80 NW3       29.98R
SHERIDAN       FAIR      54  45  71 VRB3      29.98R
BUFFALO        FAIR      50  43  77 N12G23    29.99R
GILLETTE       FAIR      55  46  71 NW6       29.95R
HULETT         CLOUDY    52  46  82 CALM      29.96R
NEWCASTLE      FAIR      52  41  66 CALM      29.94R

$$
WYZ014>020-022>026-101>103-281500-
CENTRAL WYOMING

CITY           SKY/WX    TMP DP  RH WIND       PRES   REMARKS
BIG PINEY      FAIR      42  33  70 CALM      30.10R
PINEDALE       FAIR      41  34  75 CALM      30.11R
DUBOIS         FAIR      45  27  49 N9        30.04S
LANDER         FAIR      50  37  61 CALM      30.00R
RIVERTON       FAIR      53  43  68 N6        30.00R
CASPER         FAIR      51  42  71 CALM      29.98S
DOUGLAS          N/A    N/A N/A N/A MISG      29.98S

$$
WYZ021-027>030-104>119-281500-
SOUTHERN WYOMING

CITY           SKY/WX    TMP DP  RH WIND       PRES   REMARKS
EVANSTON       FAIR      46  36  68 SW10      30.10R
KEMMERER         N/A     43  36  75 CALM      30.12R
FORT BRIDGER   SUNNY     46  37  71 W6        30.14R
ROCK SPRINGS   FAIR      47  36  65 W7        30.09R
DIXON          FAIR      44  38  79 CALM      30.13R
RAWLINS        FAIR      49  37  63 SW14      30.07R
SARATOGA       FAIR      48  37  66 S7        30.10R
LARAMIE        FAIR      48  37  65 SW9       30.06R
CHEYENNE       CLOUDY    55  39  54 W12       30.02R
TORRINGTON     FAIR      46  45  96 CALM      29.95R
PINE BLUFFS    FAIR      52  45  76 W6        30.00R

$$




USA.gov is the U.S. government's official web portal to all federal, state and local government web resources and services.